Regional Weather Roundup
Issued by NWS Little Rock, AR

Home | Current Version | Previous Version | Graphics & Text | Print | Product List | Glossary On
Versions: 1 2 3 4 5 6 7 8 9 10 11 12 13 14 15 16 17 18 19 20 21 22 23 24 25 26 27 28 29 30 31 32 33 34 35 36 37 38 39 40 41 42 43 44 45 46 47 48 49
644
ASUS44 KLZK 300505
RWRLZK

WEATHER ROUNDUP FOR ARKANSAS
NATIONAL WEATHER SERVICE LITTLE ROCK AR
1200 AM CDT MON MAY 30 2016

NOTE: "FAIR" INDICATES FEW OR NO CLOUDS BELOW 12,000 FEET WITH NO
SIGNIFICANT WEATHER AND/OR OBSTRUCTIONS TO VISIBILITY.

ARZ001-003-010-029-300600-
NORTHWEST ARKANSAS

CITY           SKY/WX    TMP DP  RH WIND       PRES   REMARKS
FAYETTEVILLE   CLOUDY    62  62 100 CALM      30.10F
FORT SMITH     CLOUDY    75  67  76 SE3       30.07F
HARRISON       PTCLDY    67  63  87 S3        30.12R
BENTONVILLE    PTCLDY    66  59  77 CALM      30.11S
ROGERS           N/A     67  64  90 CALM      30.11F
SILOAM SPGS    CLOUDY    63  52  67 NE3       30.11S
HIGHFILL       CLOUDY    65  61  87 CALM      30.10F
$$

ARZ004-005-016-300600-
NORTH CENTRAL ARKANSAS

CITY           SKY/WX    TMP DP  RH WIND       PRES   REMARKS
BATESVILLE     CLOUDY    70  66  88 CALM      30.09S
FLIPPIN        PTCLDY   N/A N/A N/A CALM      30.07R
MTN HOME       CLOUDY    70  64  81 CALM      30.09S
$$

ARZ040-041-300600-
WEST CENTRAL ARKANSAS

CITY           SKY/WX    TMP DP  RH WIND       PRES   REMARKS
MENA           MOCLDY    72  64  78 NW5       30.13F
MOUNT IDA      PTCLDY    67  64  90 CALM      30.09F
$$

ARZ009-017-025-026-028-300600-
NORTHEAST ARKANSAS

CITY           SKY/WX    TMP DP  RH WIND       PRES   REMARKS
CORNING          N/A     73  73 100 CALM      30.06F
JONESBORO      CLEAR     73  67  81 NW5       30.05S
NEWPORT        CLEAR     74  74 100 W5        30.08S
WALNUT RIDGE   CLEAR     73  66  78 CALM      30.06S
BLYTHEVILLE    CLEAR     75  71  87 W5        30.06S
$$

ARZ022-023-033-042-044-300600-
CENTRAL ARKANSAS

CITY           SKY/WX    TMP DP  RH WIND       PRES   REMARKS
LITTLE ROCK    MOCLDY    68  64  87 CALM      30.07F
N LITTLE ROCK    N/A     69  62  79 CALM      30.05F
JACKSONVILLE   MOCLDY    67  67  99 CALM      30.06F
SEARCY         CLEAR     68  68 100 CALM      30.09F
HOT SPRINGS    MOCLDY    67  65  93 VRB6      30.12R
RUSSELLVILLE   CLOUDY    70  65  84 CALM      30.07F
CLINTON        FAIR      68  68 100 CALM      30.10F
$$

ARZ036-300600-
EAST ARKANSAS

CITY           SKY/WX    TMP DP  RH WIND       PRES   REMARKS
WEST MEMPHIS   PTCLDY    73  71  93 SW3       30.04F
$$

ARZ050-053-066-070-073-300600-
SOUTHWEST ARKANSAS

CITY           SKY/WX    TMP DP  RH WIND       PRES   REMARKS
ARKADELPHIA    FAIR      69  67  93 W5        30.12R
CAMDEN         CLOUDY    68  61  77 CALM      30.09S
TEXARKANA      CLOUDY    68  65  90 N6        30.11F
EL DORADO      CLOUDY    70  64  81 CALM      30.08F
DE QUEEN       CLOUDY    67  65  93 CALM      30.05F
$$

ARZ056-057-069-300600-
SOUTHEAST ARKANSAS

CITY           SKY/WX    TMP DP  RH WIND       PRES   REMARKS
PINE BLUFF     CLOUDY    67  64  90 CALM      30.07S
STUTTGART      CLEAR     68  63  83 NW3       30.06F
MONTICELLO     CLOUDY    69  64  84 NW6       30.07S

$$






USA.gov is the U.S. government's official web portal to all federal, state and local government web resources and services.